Meteo Giornale » Osservazioni meteo Svezia » Stockholm-Arlanda

ore: 23:50 - Osservazioni Meteo Stockholm-Arlanda
Lat. 59° 39' N Lon. 17° 57' E Alt. 38 metri s.l.m.

sereno Europe/Stockholm

0 °C

Sereno

Temp. 24 Ore

0 °C

7 °C

Ovest/Nord-Ovest

16.7 Km/h

Dew point -7 °C

Umidità 59 %

Visibilità  10 Km

Il sole sorge alle ore 07:00

Il sole tramonta alle ore 17:02

Data e Ora Cielo e Fenomeni T °C DP °C Um. % Pres. hPa Vis. km Vento km/h
Ieri h: 23:50 sereno Sereno 0 -7 59 992 10 O/NO 16.7
Ieri h: 23:20 sereno Sereno 0 -6 63 991 10 O/NO 13
Ieri h: 22:50 sereno Sereno 1 -6 59 991 10 O/NO 11.1
Ieri h: 22:20 sereno Sereno 1 -5 64 990 10 O 9.3
Ieri h: 21:50 sereno Sereno 0 -5 68 989 10 O 13
Ieri h: 21:20 sereno Sereno 1 -5 64 989 10 O 13
Ieri h: 20:50 sereno Sereno 1 -4 69 989 10 O 11.1
Ieri h: 20:20 sereno Sereno 1 -4 69 988 10 O 14.8
Ieri h: 19:50 sereno Sereno 2 -4 64 988 10 O 13
Ieri h: 19:20 sereno Sereno 2 -4 64 988 10 O 13
Ieri h: 18:50 sereno Sereno 3 -4 59 987 10 O 14.8
Ieri h: 18:20 sereno Sereno 3 -3 64 987 10 O 16.7
Ieri h: 17:50 sereno Sereno 3 -3 64 986 10 O/SO 13
Ieri h: 17:20 sereno Sereno 4 -4 55 986 10 O/SO 14.8
Ieri h: 16:50 sereno Sereno 5 -5 48 986 10 O 20.3
Ieri h: 16:20 sereno Sereno 6 -4 48 985 10 O 24
Ieri h: 15:50 sereno Sereno 7 -4 45 985 10 O 29.6
Ieri h: 15:20 sereno Sereno 7 -4 45 985 10 O 29.6
Ieri h: 14:50 sereno Sereno 7 -4 45 985 10 O 29.6
Ieri h: 14:20 sereno Sereno 7 -4 45 985 10 O 29.6
Ieri h: 13:50 sereno Sereno 7 -4 45 985 10 O 33.3
Ieri h: 13:20 sereno Sereno 7 -3 48 985 10 O 35.2
Ieri h: 12:50 sereno Sereno 7 -3 48 985 10 O 31.5
Ieri h: 12:20 poco_nuvoloso Poco Nuvoloso 7 -3 48 985 10 O 35.2
Ieri h: 11:50 sereno Sereno 6 -2 56 984 10 O 35.2
Ieri h: 11:20 sereno Sereno 6 -2 56 984 10 O 33.3
Ieri h: 10:50 sereno Sereno 6 -2 56 984 10 O 31.5
Ieri h: 10:20 sereno Sereno 5 -1 65 984 10 O 29.6
Ieri h: 09:50 sereno Sereno 4 -1 69 983 10 O 31.5
Ieri h: 09:20 sereno Sereno 4 -1 69 983 10 O 29.6
Ieri h: 08:50 nuvoloso Nuvoloso 5 -0 70 983 10 O 29.6
Ieri h: 08:20 nuvoloso Nuvoloso 4 -1 69 983 10 O/SO 29.6
Ieri h: 07:50 nuvoloso Nuvoloso 4 -0 75 982 10 O/SO 29.6
Ieri h: 07:20 poco_nuvoloso Poco Nuvoloso 4 -0 75 982 10 O/SO 31.5
Ieri h: 06:50 nuvoloso Nuvoloso 4 0 75 981 10 O/SO 29.6
Ieri h: 06:20 molto_nuvoloso Molto Nuvoloso 4 1 80 981 10 O/SO 33.3
Ieri h: 05:50 molto_nuvoloso Molto Nuvoloso 4 0 75 981 10 O/SO 33.3
Ieri h: 04:50 molto_nuvoloso Molto Nuvoloso 4 -1 69 981 10 O/SO 35.2
Ieri h: 04:20 molto_nuvoloso Molto Nuvoloso 4 -1 69 981 10 SO 31.5
Ieri h: 03:50 molto_nuvoloso Molto Nuvoloso 4 -1 69 981 10 O/SO 29.6
Ieri h: 03:20 molto_nuvoloso Molto Nuvoloso 3 -1 74 981 10 O/SO 31.5
Ieri h: 02:50 molto_nuvoloso Molto Nuvoloso 3 -2 69 981 10 O/SO 33.3
Ieri h: 02:20 nuvoloso Nuvoloso 3 -2 69 981 10 O/SO 37
Ieri h: 01:50 sereno Sereno 3 -2 69 982 10 O/SO 35.2
Ieri h: 01:20 sereno Sereno 3 -2 69 982 10 O/SO 37
Ieri h: 00:50 sereno Sereno 3 -2 69 981 10 O/SO 37
Ieri h: 00:20 sereno Sereno 3 -3 64 982 10 O/SO 40.7
Ieri h: 23:50 sereno Sereno 3 -3 64 981 10 O/SO 40.7